Flag for Kiribati Weather past 2 weeks in Kiritimati, Christmas Island, Kiribati

Now
84 °F

Scattered clouds.


Feels Like: 91 °F
Forecast: 79 / 83 °F
Wind: 20 mph from South

Location: Christmas / Cassidy

Current Time: Jan 31, 2015 at 10:40:17 AM

Latest Report: Jan 31, 2015 at 10:00 AM


Visibility: N/A

Pressure: 29.80 "Hg

Humidity: 70%

Dew point: 73 °F

Location of KiritimatiLocation

Historic Weather in Kiritimati — Graph

°F

Kiritimati temperature yesterday

Maximum temperature yesterday: 84 °F (at 11:00 AM)
Minimum temperature yesterday: 75 °F (at 12:00 AM)
Average temperature yesterday: 79 °F

Past Weeks' High & Low Weather Summary

 TemperatureHumidityPressure
High88 °F (Jan 16, 1:00 PM)100% (Jan 20, 2:00 PM)32.19 "Hg (Jan 20, 2:00 PM)
Low75 °F (Jan 19, 7:00 AM)62% (Jan 16, 1:00 PM)29.65 "Hg (Jan 27, 2:00 PM)
Average80 °F83%29.80 "Hg
* Reported Jan 16 9:00 AM — Jan 31 9:00 AM, Kiritimati, Weather by CustomWeather, © 2014

Note: Actual official high and low records may vary slightly from our data, if they occured in-between our weather recording intervals... More about our weather records

Advertising

Kiritimati weather history for previous 24 hours

 ConditionsComfort  
Time TempWeatherWind HumidityBarometerVisibility
9:00 AM
Jan 31
82 °FScattered clouds.18 mph70%29.80 "HgN/A
8:00 AM81 °FPassing clouds.14 mph74%29.80 "HgN/A
7:00 AM79 °FScattered clouds.14 mph79%29.77 "HgN/A
6:00 AM79 °FPassing clouds.7 mph79%29.77 "HgN/A
5:00 AM79 °FPassing clouds.1 mph79%29.74 "HgN/A
2:00 AM79 °FPassing clouds.12 mph84%29.77 "HgN/A
1:00 AM79 °FPassing clouds.14 mph79%29.77 "HgN/A
12:00 AM79 °FPassing clouds.7 mph79%29.77 "HgN/A
11:00 PM
Jan 30
79 °FPassing clouds.9 mph79%29.77 "HgN/A
9:00 PM79 °FPassing clouds.9 mph89%29.77 "HgN/A
8:00 PM79 °FPassing clouds.12 mph84%29.74 "HgN/A
7:00 PM79 °FWarm.16 mph84%29.74 "Hg31 mi
6:00 PM84 °FPassing clouds.16 mph79%29.71 "HgN/A
5:00 PM82 °FRain. Cloudy.14 mph79%29.68 "HgN/A
4:00 PM84 °FScattered clouds.9 mph74%29.68 "HgN/A
3:00 PM84 °FBroken clouds.14 mph79%29.68 "HgN/A
2:00 PM84 °FSprinkles. Broken clouds.9 mph74%29.74 "HgN/A
1:00 PM82 °FSprinkles. Partly sunny.18 mph79%29.74 "HgN/A
11:00 AM84 °FScattered clouds.14 mph79%29.77 "HgN/A
10:00 AM81 °FBroken clouds.9 mph89%29.80 "HgN/A
Weather by CustomWeather, © 2014

See weather overviewHow to use our weather pages